Location: Angwan Shehu
(11.2514°N, 7.4613°E)
Time: 23:34:36
(UTC+00:00)

N. Korean satellite - Pass Details

Date: 06 March 2021
Orbit: 453 x 499 km, 97.2° (Epoch: 12 April)

Event Time Altitude Azimuth Distance (km) Brightness Sun altitude
Rises 04:13:07 0° 24° (NNE) 2,545 10.5 -22.7°
Reaches altitude 10° 04:15:17 10° 33° (NNE) 1,673 9.7 -22.2°
Maximum altitude 04:18:36 34° 100° (E) 823 8.3 -21.4°
Drops below altitude 10° 04:21:56 10° 167° (SSE) 1,690 9.5 -20.5°
Sets 04:24:08 0° 176° (S) 2,577 10.3 -20.0°
